Regional Weather Roundup
Issued by NWS

Home | Current Version | Previous Version | Text Only | Print | Product List | Glossary On
Versions: 1 2 3 4 5 6 7 8 9 10 11 12 13 14 15 16 17 18 19 20 21 22 23 24 25 26 27 28 29 30 31 32 33 34 35 36 37 38 39 40 41 42 43 44 45 46 47 48 49 50
000
ASUS44 KMEG 241210
RWRTN
TENNESSEE HOURLY STATE WEATHER ROUNDUP
NATIONAL WEATHER SERVICE MEMPHIS TN
700 AM CDT WED AUG 24 2016

TNZ002-004-019-021-049-052-054-088>092-241300-
WEST TENNESSEE

CITY           SKY/WX    TMP DP  RH WIND       PRES   REMARKS
MEMPHIS INTL   PTCLDY    78  73  84 S5        30.17R
NWS MEMPHIS      N/A     75 N/A N/A MISG        N/A
JACKSON        CLOUDY    71  71 100 CALM      30.18S FOG
DYERSBURG      CLEAR     77  72  83 MISG      30.17R
UNION CITY     CLEAR     72  72 100 CALM      30.16S
PARIS          CLEAR     72  70  94 S5        30.19S
$$

TNZ008-025-027-028-033-062-065-066-241300-
NORTH MIDDLE TENNESSEE

CITY           SKY/WX    TMP DP  RH WIND       PRES   REMARKS
NASHVILLE      MOCLDY    71  68  90 CALM      30.21R
CLARKSVILLE    CLOUDY    71  69  93 CALM      30.19R
SMYRNA         CLEAR     72  70  94 MISG      30.21
COOKEVILLE     CLEAR     70  68  94 S3        30.24S
CROSSVILLE     PTCLDY    70  66  87 VRB3      30.30S
$$

TNZ061-075-076-078-094-096-097-241300-
SOUTH MIDDLE TENNESSEE

CITY           SKY/WX    TMP DP  RH WIND       PRES   REMARKS
FAYETTEVILLE     N/A     72  68  88 CALM      30.23S
TULLAHOMA      CLEAR     68  66  94 CALM      30.26R
WINCHESTER     CLEAR     72  68  88 SE3       30.24S
MCMINNVILLE    CLEAR     68  68 100 CALM      30.25R
COLUMBIA       CLEAR    N/A N/A N/A CALM      30.20S
SHELBYVILLE    CLEAR     72  70  94 E3        30.24R
$$

TNZ017-018-042-046-047-241300-
NORTHEAST TENNESSEE

CITY           SKY/WX    TMP DP  RH WIND       PRES   REMARKS
TRI CITIES     PTSUNNY   66  63  90 CALM      30.32R
ELIZABETHTON   MOSUNNY   68  63  83 CALM      30.32R
$$

TNZ012-013-036-069-073-074-241300-
CENTRAL EAST TENNESSEE

CITY           SKY/WX    TMP DP  RH WIND       PRES   REMARKS
KNOXVILLE      CLOUDY    71  67  87 CALM      30.26R
OAK RIDGE      CLOUDY    70  66  87 CALM      30.28S
GATLINBURG     CLOUDY    68  66  94 CALM      30.27S
MORRISTOWN     CLOUDY    72  66  83 CALM      30.28R
$$

TNZ083-085-099-241300-
SOUTHEAST TENNESSEE

CITY           SKY/WX    TMP DP  RH WIND       PRES   REMARKS
CHATTANOOGA    MOCLDY    73  69  87 CALM      30.26R
$$

SKY/WX REPORTED AS FAIR MEANS FEW OR NO CLOUDS BELOW
12 THOUSAND FEET.





USA.gov is the U.S. government's official web portal to all federal, state and local government web resources and services.